Location: Владивосток
(43.1151°N, 131.8856°E)
Time: 17:09:56
(UTC+10:00)

Envisat - Pass Details

Date: 24 January 2022
Orbit: 764 x 765 km, 98.2° (Epoch: 16 May)

Event Time Altitude Azimuth Distance (km) Brightness Sun altitude
Rises 07:11:28 0° 2° (N) 3,240 6.1 -15.3°
Reaches altitude 10° 07:14:05 10° 350° (N) 2,310 5.3 -14.9°
Maximum altitude 07:18:15 26° 295° (WNW) 1,465 3.9 -14.1°
Drops below altitude 10° 07:22:25 10° 239° (WSW) 2,298 5.1 -13.4°
Sets 07:25:01 0° 227° (SW) 3,220 5.9 -12.9°
